Flag for Qatar Weather past 2 weeks in Al-Jamiliyah, Qatar

Now
65 °F

Passing clouds.


Feels Like: 65 °F
Forecast: 65 / 77 °F
Wind: 8 mph from North

Location: Al Udeid

Current Time: Mar 4, 2015 at 8:20:08 AM

Latest Report: Mar 4, 2015 at 7:58 AM


Visibility: N/A

Pressure: 29.96 "Hg

Humidity: 55%

Dew point: 48 °F

Location of Al-JamiliyahLocation

Historic Weather in Al-Jamiliyah — Graph

°F

Al-Jamiliyah temperature yesterday

Maximum temperature yesterday: 83 °F (at 1:58 PM)
Minimum temperature yesterday: 61 °F (at 4:58 AM)
Average temperature yesterday: 71 °F

Past Weeks' High & Low Weather Summary

 TemperatureHumidityPressure
High93 °F (Feb 20, 3:58 PM)100% (Feb 17, 6:58 AM)30.19 "Hg (Feb 17, 6:58 AM)
Low48 °F (Feb 24, 5:58 AM)9% (Mar 2, 2:58 PM)29.56 "Hg (Feb 20, 2:58 PM)
Average67 °F56%29.95 "Hg
* Reported Feb 17 6:58 AM — Mar 4 6:58 AM, Al-Jamiliyah, Weather by CustomWeather, © 2015

Note: Actual official high and low records may vary slightly from our data, if they occured in-between our weather recording intervals... More about our weather records

Advertising

Al-Jamiliyah weather history for previous 24 hours

 ConditionsComfort  
Time TempWeatherWind HumidityBarometerVisibility
6:58 AM
Wed, Mar 4
61 °FClear.6 mph62%29.94 "HgN/A
5:58 AM61 °FClear.6 mph61%29.92 "HgN/A
4:58 AM63 °FPassing clouds.No wind56%29.91 "HgN/A
3:58 AM63 °FPassing clouds.10 mph55%29.91 "HgN/A
2:58 AM62 °FClear.9 mph55%29.91 "HgN/A
1:58 AM64 °FClear.8 mph53%29.92 "HgN/A
12:58 AM65 °FSunny.10 mph48%29.94 "HgN/A
11:58 PM
Tue, Mar 3
65 °FSunny.12 mph46%29.97 "HgN/A
10:58 PM66 °FSunny.10 mph38%29.98 "HgN/A
9:58 PM67 °FSunny.8 mph32%29.99 "HgN/A
8:58 PM69 °FSunny.9 mph27%29.99 "HgN/A
7:58 PM73 °FSunny.7 mph24%29.98 "HgN/A
6:58 PM74 °FSunny.8 mph21%29.96 "HgN/A
5:58 PM76 °FSunny.9 mph19%29.93 "HgN/A
4:58 PM79 °FSunny.15 mph17%29.92 "HgN/A
3:58 PM82 °FSunny.16 mph17%29.91 "HgN/A
2:58 PM83 °FSunny.14 mph16%29.92 "HgN/A
1:58 PM83 °FPassing clouds.14 mph17%29.92 "HgN/A
12:58 PM83 °FPassing clouds.18 mph20%29.94 "HgN/A
11:58 AM82 °FPassing clouds.15 mph20%29.96 "HgN/A
10:58 AM78 °FPassing clouds.10 mph33%30.00 "HgN/A
9:58 AM76 °FPassing clouds.16 mph34%30.02 "HgN/A
8:58 AM72 °FClear.10 mph40%30.02 "HgN/A
Weather by CustomWeather, © 2015

See weather overviewHow to use our weather pages